Energy, IL

7:45 AM CST on February 08, 2016 (GMT -0600)
Williamson County Regional

Weather History for KMWA - February, 2013

Change the Weather History Date:

Tuesday, February 26, 2013

  Actual Average Record
Temperature  
Mean Temperature 42 °F -  
Max Temperature 48 °F 46 °F 76 °F (1981)
Min Temperature 37 °F 26 °F 8 °F (1974)
Degree Days  
Heating Degree Days 22    
Moisture  
Dew Point 38 °F    
Average Humidity 88    
Maximum Humidity 100    
Minimum Humidity 76    
Precipitation  
Precipitation 0.39 in - - ()
Sea Level Pressure  
Sea Level Pressure 29.50 in    
Wind  
Wind Speed 13 mph (South)    
Max Wind Speed 20 mph    
Max Gust Speed 26 mph    
Visibility 9 miles    
Events Rain    
Averages and records for this station are not official NWS values.
T = Trace of Precipitation, MM = Missing Value Source: NWS Daily Summary

Daily Weather History Graph

Daily Weather History Graph

Search for Another Location

Airport or City:

Trip Planner

Search our weather history database for the weather conditions in past years. The results will help you decide how hot, cold, wet, or windy it might be!

Date:

Astronomy

Feb. 26, 2013 Rise Set
Actual Time 6:31 AM CST 5:46 PM CST
Civil Twilight 6:04 AM CST 6:13 PM CST
Nautical Twilight 5:34 AM CST 6:43 PM CST
Astronomical Twilight 5:04 AM CST 7:14 PM CST
Moon 7:01 PM CST (2/26) 6:35 AM CST (2/26)
Length of Visible Light 12h 08m
Length of Day
11h 15m
Full, 99% of the Moon is Illuminated
Feb 26
Full
Mar 4
Last Quarter
Mar 11
New
Mar 19
First Quarter
Mar 27
Full

Hourly Weather History & Observations

Time (CST) Temp. Windchill Dew Point Humidity Pressure Visibility Wind Dir Wind Speed Gust Speed Precip Events Conditions
12:15 AM 41.0 °F 34.7 °F 33.8 °F 76% 29.56 in 5.0 mi ENE 10.4 mph - 0.04 in Rain Rain
12:35 AM 41.0 °F 32.8 °F 35.6 °F 81% 29.50 in 4.0 mi NE 16.1 mph 20.7 mph 0.09 in Rain Light Rain
12:55 AM 41.0 °F 31.9 °F 35.6 °F 81% 29.49 in 10.0 mi ENE 19.6 mph 24.2 mph 0.12 in Rain Light Rain
1:15 AM 41.0 °F 31.9 °F 35.6 °F 81% 29.48 in 10.0 mi ENE 19.6 mph 26.5 mph 0.01 in Rain Light Rain
1:35 AM 41.0 °F 32.2 °F 35.6 °F 81% 29.47 in 3.0 mi ENE 18.4 mph 23.0 mph 0.07 in Rain Rain
1:55 AM 41.0 °F 34.3 °F 37.4 °F 87% 29.46 in 3.0 mi ENE 11.5 mph 18.4 mph 0.16 in Rain Light Rain
2:15 AM 41.0 °F 34.3 °F 37.4 °F 87% 29.45 in 4.0 mi East 11.5 mph 19.6 mph 0.06 in Rain Rain
2:35 AM 41.0 °F 33.5 °F 37.4 °F 87% 29.43 in 5.0 mi ENE 13.8 mph 21.9 mph 0.08 in Rain Light Rain
2:55 AM 41.0 °F 33.9 °F 37.4 °F 87% 29.41 in 7.0 mi ENE 12.7 mph 19.6 mph 0.10 in Rain Light Rain
3:15 AM 41.0 °F 33.5 °F 37.4 °F 87% 29.41 in 5.0 mi ENE 13.8 mph 18.4 mph N/A   Drizzle
3:35 AM 41.0 °F 33.1 °F 37.4 °F 87% 29.41 in 2.5 mi ENE 15.0 mph 19.6 mph N/A Rain Rain
3:55 AM 41.0 °F 34.3 °F 39.2 °F 93% 29.41 in 7.0 mi East 11.5 mph 17.3 mph N/A Rain Light Rain
4:15 AM 41.0 °F 33.1 °F 39.2 °F 93% 29.37 in 7.0 mi East 15.0 mph 23.0 mph N/A   Drizzle
4:35 AM 41.0 °F 33.9 °F 39.2 °F 93% 29.39 in 10.0 mi East 12.7 mph 19.6 mph N/A   Overcast
4:55 AM 41.0 °F 34.3 °F 39.2 °F 93% 29.37 in 10.0 mi East 11.5 mph 18.4 mph N/A   Overcast
5:15 AM 41.0 °F 35.2 °F 39.2 °F 93% 29.37 in 10.0 mi East 9.2 mph 17.3 mph N/A   Overcast
5:35 AM 41.0 °F 35.2 °F 41.0 °F 100% 29.37 in 10.0 mi East 9.2 mph 16.1 mph N/A   Overcast
6:57 AM 42.8 °F 37.5 °F 42.8 °F 100% 29.35 in 7.0 mi ENE 9.2 mph - N/A   Overcast
7:55 AM 44.6 °F 40.2 °F 44.6 °F 100% 29.38 in 7.0 mi SE 8.1 mph - N/A   Overcast
9:55 AM 48.2 °F - 44.6 °F 87% 29.38 in 20.0 mi South 9.2 mph - N/A   Overcast
12:53 PM 48.2 °F - 42.8 °F 82% 29.39 in 15.0 mi SW 11.5 mph - N/A   Mostly Cloudy
1:54 PM 48.2 °F - 42.8 °F 82% 29.40 in 15.0 mi SW 13.8 mph - N/A Rain Light Rain
2:52 PM 46.4 °F 40.1 °F 41.0 °F 81% 29.42 in 20.0 mi SSW 15.0 mph - N/A   Overcast
3:53 PM 44.6 °F 37.8 °F 42.8 °F 93% 29.45 in 7.0 mi SSW 15.0 mph - N/A Rain Light Rain
4:53 PM 42.8 °F 35.4 °F 39.2 °F 87% 29.48 in 10.0 mi SSW 15.0 mph - N/A Rain Light Rain
5:55 PM 42.8 °F 35.8 °F 39.2 °F 87% 29.51 in 10.0 mi SSW 13.8 mph - N/A Rain Light Rain
7:15 PM 41.0 °F 36.4 °F 39.2 °F 93% 29.55 in 5.0 mi SSW 6.9 mph - N/A   Drizzle
7:35 PM 41.0 °F 35.2 °F 39.2 °F 93% 29.56 in 10.0 mi WSW 9.2 mph 16.1 mph 0.01 in   Drizzle
7:55 PM 41.0 °F 35.2 °F 37.4 °F 87% 29.57 in 10.0 mi West 9.2 mph 18.4 mph 0.01 in   Overcast
8:15 PM 41.0 °F 34.3 °F 37.4 °F 87% 29.59 in 10.0 mi WSW 11.5 mph 17.3 mph N/A   Overcast
8:35 PM 41.0 °F 35.8 °F 37.4 °F 87% 29.59 in 10.0 mi WSW 8.1 mph 16.1 mph N/A   Overcast
8:55 PM 41.0 °F 34.7 °F 37.4 °F 87% 29.60 in 10.0 mi WSW 10.4 mph - N/A   Overcast
9:15 PM 39.2 °F 33.6 °F 37.4 °F 93% 29.61 in 10.0 mi WSW 8.1 mph - N/A   Overcast
9:35 PM 39.2 °F 32.5 °F 35.6 °F 87% 29.62 in 10.0 mi WSW 10.4 mph 18.4 mph N/A   Overcast
9:55 PM 39.2 °F 32.5 °F 35.6 °F 87% 29.63 in 10.0 mi WSW 10.4 mph 18.4 mph N/A   Overcast
10:15 PM 39.2 °F 32.0 °F 35.6 °F 87% 29.63 in 10.0 mi WSW 11.5 mph 18.4 mph N/A   Overcast
10:35 PM 39.2 °F 32.5 °F 35.6 °F 87% 29.65 in 10.0 mi West 10.4 mph 17.3 mph N/A   Overcast
10:55 PM 39.2 °F 32.5 °F 33.8 °F 81% 29.66 in 10.0 mi WSW 10.4 mph - N/A   Overcast
11:15 PM 37.4 °F 30.3 °F 33.8 °F 87% 29.67 in 10.0 mi West 10.4 mph 21.9 mph N/A   Overcast
11:35 PM 37.4 °F 28.9 °F 32.0 °F 81% 29.67 in 10.0 mi West 13.8 mph 18.4 mph N/A   Overcast
11:55 PM 37.4 °F 31.4 °F 33.8 °F 87% 29.67 in 10.0 mi WSW 8.1 mph - N/A   Overcast